User: anonymous   Login
Location: Ostrava
(49.8330°N, 18.2830°E)
Time: 09:24:15
(UTC+02:00)
Language:

Iridium 7 - Orbit

View from above orbital plane
View from above orbital plane
View from above satellite
View from above satellite

Ground track
Ground track

The orbit data is extracted from the following two-line orbital elements,

1 24793U 97020B   17268.55692832 +.00000064 +00000-0 +15880-4 0  9993
2 24793 086.3918 277.0049 0002147 094.5035 265.6406 14.34227988067359
Epoch (UTC): 25 September 2017 13:21:58
Eccentricity: 0.0002147
inclination: 86.3918°
perigee height: 776 km
apogee height: 779 km
right ascension of ascending node: 277.0049°
argument of perigee: 94.5035°
revolutions per day: 14.34227988
mean anomaly at epoch: 265.6406°
orbit number at epoch: 6735

The dashed part of the orbit path shows where the satellite is in the earth's shadow,  

DLR